Location: *
(2.5500°S, 65.9667°W)
Time: 11:56:12
(UTC+00:00)

DELTA-4 R/B - Pass Details

Date: 24 May 2022
Orbit: 448 x 34502 km, 13.4° (Epoch: 30 June)

Event Time Altitude Azimuth Distance (km) Brightness Sun altitude
Rises 06:34:41 0° 259° (W) 15,978 9.4 -52.6°
Reaches altitude 10° 06:49:41 10° 261° (W) 18,279 9.6 -49.4°
Maximum altitude 08:10:24 24° 267° (W) 29,431 10.4 -31.2°
Drops below altitude 10° 10:58:12 10° 273° (W) 39,269 11.1 7.8°
Sets 12:24:03 0° 276° (W) 37,612 11.1 27.6°
